Cheney, WA (99004)

5:00 PM PDT on August 03, 2015 (GMT -0700)
1 mile south of Cheney | | Change Station
CLOSE
Current Station
Personal Weather Station
Location: Cheney, WA
Elevation: 2339 ft
Nearby Weather Stations

Elev 2339 ft 47.46 °N, 117.60 °W | Updated 28 minutes ago

Overcast
Overcast
85.8 °F
Feels Like 83 °F
N
4.9
Wind Variable Wind from SW
Gusts 9.0 mph

Today
High -- | Low -- °F
--% Chance of Precip.
Yesterday
High -- | Low -- °F
Precip. -- in
5:30 AM 8:21 PM
Waning Gibbous, 83% visible
Pressure 29.79 in
Visibility 10.0 miles
Clouds Few 12000 ft
Heat Index 83 °F
Dew Point 44 °F
Humidity 23%
Rainfall 0.00 in
Snow Depth Not available.
UV 10.8 out of 12
Pollen 6.60 out of 12
Air Quality Not available.
Flu Activity Not available.
METAR KSKA 032358Z AUTO 22018KT 10SM FEW120 30/05 A2983 RMK AO2 SLP086 T03010051 10317 20261 403610165 53001

More Conditions Fewer Conditions

Pressure 29.79 in
Visibility 10.0 miles
Clouds Few 12000 ft
Heat Index 83 °F
Dew Point 44 °F
Humidity 23%
Rainfall 0.00 in
Snow Depth Not available.
UV 10.8 out of 12
Pollen 6.60 out of 12
Air Quality Not available.
Flu Activity Not available.
METAR KSKA 032358Z AUTO 22018KT 10SM FEW120 30/05 A2983 RMK AO2 SLP086 T03010051 10317 20261 403610165 53001

More Conditions Fewer Conditions

10-Day Weather Forecast

×

Almanac

Astronomy

Aug. 03, 2015 Rise Set
Actual Time
Civil Twilight
Nautical Twilight
Astronomical Twilight
Moon
Length of Visible Light
Length of Day
Tomorrow will be .
, % of the Moon is Illuminated

Today's Extremes

State Highs State Lows

Community

WunderPhotos

Upload Photos

1,843,788 photos uploaded!

WunderBlogs® & News

Nearby

Air Quality

  Air Quality AQ Index Pollutant
Not available.

Snow Depth

Station Depth Elevation

Earthquake Activity

City Distance Mag. Time & Date
Minimum magnitude displayed is 2.5.

Coastal Water Temperatures

Place Temperature

Stations

Nearby Weather Stations

Station Location Temp. Windchill Dew Point Humidity Wind Precip. Elev Updated Type
                   
Fire Weather Warning
Statement as of 2:58 PM PDT on August 03, 2015

... Red flag warning in effect until 9 PM PDT Wednesday for wind
and low relative humidity for the Palouse region of southeast
Washington...

The National Weather Service in Spokane has issued a red
flag warning for wind and low relative humidity... which is in
effect until 9 PM PDT Wednesday.

* Affected area: fire weather zone 674 East Washington Palouse (zone
674).

* Winds: southwest 10 to 20 mph... with gusts around 30 mph.

* Relative humidities: 10 to 20 percent.

* Impacts: rapid fire spread is possible with any new or ongoing
fires.

Precautionary/preparedness actions...

A red flag warning means that critical fire weather conditions
are either occurring now... or will shortly. A combination of
strong winds... low relative humidity... and warm temperatures will
create extreme fire growth potential.